Preview of NWS' New Version of Forecast
This preview is not operational and should not be used for support decisions.

Regional Weather Roundup (RWR)

Issued by National Weather Service (NWS)

                            
000
ASUS45 KCYS 180510
RWRWY 

WYOMING REGIONAL WEATHER ROUNDUP
NATIONAL WEATHER SERVICE CHEYENNE WY
1100 PM MDT WED APR 17 2019

NOTE:  "FAIR" INDICATES FEW OR NO CLOUDS BELOW 12,000 FEET
WITH NO SIGNIFICANT WEATHER AND/OR OBSTRUCTIONS TO VISIBILITY.

WYZ001-180600-
YELLOWSTONE NATIONAL PARK
  
CITY           SKY/WX    TMP DP  RH WIND       PRES   REMARKS
LK YELLOWSTONE NOT AVBL                                               
W YELLOWSTONE  NOT AVBL                                               

$$
WYZ002>013-054>058-071-098>099-180600-
NORTHERN WYOMING
  
CITY           SKY/WX    TMP DP  RH WIND       PRES   REMARKS
JACKSON        LGT RAIN  42  30  62 SW14      30.21R                  
CODY           FAIR      38  26  62 S5        30.11R WCI  34          
GREYBULL       CLOUDY    50  29  44 NW13      30.05R                  
WORLAND        CLOUDY    43  35  73 S5        30.07R                  
SHERIDAN       FAIR      39  31  72 CALM      30.06R                  
BUFFALO        MOCLDY    37  31  78 SW7       30.06R WCI  32          
GILLETTE       MOCLDY    38  34  85 W13       30.04R WCI  30          
HULETT         MOCLDY    37  34  87 S5        30.02S WCI  34          
NEWCASTLE      FAIR      37  30  75 N10       30.02  WCI  30          

$$
WYZ014>020-022>026-101>103-180600-
CENTRAL WYOMING
  
CITY           SKY/WX    TMP DP  RH WIND       PRES   REMARKS
BIG PINEY      FAIR      36  26  67 NW8       30.21R WCI  30          
PINEDALE       FAIR      32  27  80 SW3       30.21S                  
DUBOIS         FAIR      37  23  56 NW23G30   30.12F WCI  26          
LANDER         FAIR      44  22  41 SW8       30.10R                  
RIVERTON       FAIR      45  25  45 NW18      30.09S                  
CASPER         MOCLDY    34  33  96 CALM      30.10R                  
DOUGLAS        CLOUDY    40  35  83 NW7       30.09R                  

$$
WYZ021-027>030-104>119-180600-
SOUTHERN WYOMING
  
CITY           SKY/WX    TMP DP  RH WIND       PRES   REMARKS
EVANSTON       FAIR      36  28  73 SW9       30.28S WCI  29          
KEMMERER       FAIR      34  30  86 W17       30.25S WCI  23          
ROCK SPRINGS   FAIR      38  30  73 W21G30    30.20S WCI  28          
DIXON          CLOUDY    41  29  60 W7        30.21R                  
RAWLINS        FAIR      39  28  64 W14       30.15R WCI  31          
SARATOGA       MOCLDY    39  27  60 W15       30.15R WCI  31          
LARAMIE        MOCLDY    33  33 100 NW8       30.10S WCI  26          
CHEYENNE       MOCLDY    35  35 100 NW5       30.08R WCI  31          
TORRINGTON     FAIR      42  37  82 W6        30.03R                  
PINE BLUFFS    DRIZZLE   37  37 100 N5        30.07S WCI  34          

$$
  

000
ASUS45 KCYS 180510
RWRWY 

WYOMING REGIONAL WEATHER ROUNDUP
NATIONAL WEATHER SERVICE CHEYENNE WY
1100 PM MDT WED APR 17 2019

NOTE:  "FAIR" INDICATES FEW OR NO CLOUDS BELOW 12,000 FEET
WITH NO SIGNIFICANT WEATHER AND/OR OBSTRUCTIONS TO VISIBILITY.

WYZ001-180600-
...YELLOWSTONE NATIONAL PARK...
  
CITY           SKY/WX    TMP DP  RH WIND       PRES   REMARKS
LK YELLOWSTONE NOT AVBL                                               
W YELLOWSTONE  NOT AVBL                                               

$$
WYZ002>013-054>058-071-098>099-180600-
...NORTHERN WYOMING...
  
CITY           SKY/WX    TMP DP  RH WIND       PRES   REMARKS
JACKSON        LGT RAIN  42  30  62 SW14      30.21R                  
CODY           PTCLDY    38  26  62 S5        30.11R WCI  34          
GREYBULL       CLOUDY    50  29  44 NW13      30.05R                  
WORLAND        CLOUDY    43  35  73 S5        30.07R                  
SHERIDAN       PTCLDY    39  31  72 CALM      30.06R                  
BUFFALO        MOCLDY    37  31  78 SW7       30.06R WCI  32          
GILLETTE       MOCLDY    38  34  85 W13       30.04R WCI  30          
HULETT         MOCLDY    37  34  87 S5        30.02S WCI  34          
NEWCASTLE      FAIR      37  30  75 N10       30.02S WCI  30          

$$
WYZ014>020-022>026-101>103-180600-
...CENTRAL WYOMING...
  
CITY           SKY/WX    TMP DP  RH WIND       PRES   REMARKS
BIG PINEY      CLEAR     36  26  67 NW8       30.21R WCI  30          
PINEDALE       PTCLDY    32  27  80 SW3       30.21S                  
DUBOIS         FAIR      37  23  56 NW23G30   30.12F WCI  26          
LANDER         CLEAR     44  22  41 SW8       30.10R                  
RIVERTON       CLEAR     45  25  45 NW18      30.09S                  
CASPER         MOCLDY    34  33  96 CALM      30.10R                  
DOUGLAS        CLOUDY    40  35  83 NW7       30.09R                  

$$
WYZ021-027>030-104>119-180600-
...SOUTHERN WYOMING...
  
CITY           SKY/WX    TMP DP  RH WIND       PRES   REMARKS
EVANSTON       PTCLDY    36  28  73 SW9       30.28S WCI  29          
KEMMERER       CLEAR     34  30  86 W17       30.25S WCI  23          
FORT BRIDGER   NOT AVBL                                               
ROCK SPRINGS   CLEAR     38  30  73 W21G30    30.20S WCI  28          
DIXON          CLOUDY    41  29  60 W7        30.21R                  
RAWLINS        PTCLDY    39  28  64 W14       30.15R WCI  31          
SARATOGA       MOCLDY    39  27  60 W15       30.15R WCI  31          
LARAMIE        MOCLDY    33  33 100 NW8       30.10S WCI  26          
CHEYENNE       CLOUDY    35  35 100 NW5       30.08R WCI  31          
TORRINGTON     PTCLDY    42  37  82 W6        30.03R                  
PINE BLUFFS    DRIZZLE   37  37 100 N5        30.07S WCI  34          

$$